Regional Weather Roundup
Issued by NWS

Home | Current Version | Previous Version | Text Only | Print | Product List | Glossary Off
Versions: 1 2 3 4 5 6 7 8 9 10 11 12 13 14 15 16 17 18 19 20 21 22 23 24 25 26 27 28 29 30 31 32 33 34 35 36 37 38 39 40 41 42 43 44 45 46 47 48 49 50

000
ASUS43 KMPX 260201
RWRMN
WEATHER ROUNDUP FOR MINNESOTA
NATIONAL WEATHER SERVICE TWIN CITIES/CHANHASSEN MN
900 PM CDT WED APR 25 2018


NOTE: "FAIR" INDICATES FEW OR NO CLOUDS BELOW 12,000 FEET WITH NO
SIGNIFICANT WEATHER AND/OR OBSTRUCTIONS TO VISIBILITY. N/A MEANS
CURRENT SKY AND/OR WEATHER CONDITIONS ARE NOT AVAILABLE.

MNZ060>063-068>070-260300-
   Twin Cities Metro

CITY           SKY/WX    TMP DP  RH WIND       PRES   REMARKS
TWIN CITIES    MOCLDY    54  30  40 W6        30.00F
ST PAUL        FAIR      53  26  35 W6        30.00F
CRYSTAL        FAIR      51  28  41 SW5       29.99F
BLAINE         MOCLDY    54  27  35 SW5       29.99F
LAKEVILLE      FAIR      48  32  53 CALM      30.00F
EDEN PRAIRIE   FAIR      51  32  48 SW5       29.99F
SOUTH ST PAUL  FAIR      52  26  36 W3        29.99F
LAKE ELMO      FAIR      52  27  37 W5        30.00F
$$
MNZ001>005-007-008-013>017-022>024-027-028-260300-
   Northwest Minnesota

CITY           SKY/WX    TMP DP  RH WIND       PRES   REMARKS
BEMIDJI        FAIR      51  30  44 S7        29.87F
HALLOCK        FAIR      55  36  47 S15       29.74F
ROSEAU         FAIR      54  39  58 S10       29.78F
WARROAD        FAIR      54  37  54 S8        29.79F
THIEF RVR FALL FAIR      52  36  54 S13       29.82F
CROOKSTON      FAIR      54  37  54 S10       29.82F
FOSSTON        FAIR      48  32  53 S12       29.86S
DETROIT LAKES  FAIR      48  32  53 CALM      29.90S
MOORHEAD       FAIR      55  36  47 S13       29.87S
PARK RAPIDS    FAIR      48  30  49 S8        29.89F
MAHNOMEN       FAIR      51  34  53 S12       29.86F
$$
MNZ006-009>011-018-025>026-260300-
   North Central Minnesota

CITY           SKY/WX    TMP DP  RH WIND       PRES   REMARKS
BAUDETTE       FAIR      51  34  52 S7        29.81F
FLAG ISLAND    FAIR      39  30  70 S9        29.76F
INTL FALLS     FAIR      49  29  46 SW8       29.84F
WASKISH        FAIR      54  30  40 S5        29.85F
BIG FORK       FAIR      46  27  46 S7        29.88F
LONGVILLE      FAIR      52  27  37 S5        29.91F
GRAND RAPIDS   FAIR      49  27  42 S6        29.93S
CRANE LAKE       N/A     41  25  52 CALM      29.89S
ORR            FAIR      48  21  34 CALM      29.86S
COOK           FAIR      50  25  37 SW3       29.90S
WALKER         FAIR      50  27  41 SW8       29.89F
$$
MNZ012-019>021-037-260300-
   Northeast Minnesota

CITY           SKY/WX    TMP DP  RH WIND       PRES   REMARKS
DULUTH         FAIR      50  21  32 SW7       29.93F
ELY            FAIR      50  23  34 SW3       29.90S
HIBBING        FAIR      48  24  39 CALM      29.90F
EVELETH        FAIR      48  27  43 SW7       29.92S
DULUTH HARBOR  FAIR      37  30  75 CALM      29.94F
TWO HARBORS    FAIR      45  25  45 CALM      29.92F
SILVER BAY     FAIR      37  21  52 CALM      29.92S
GRAND MARAIS     N/A     33  25  72 CALM      29.96F
G MARAIS ARPRT FAIR      36  16  44 S5        29.93S
$$
MNZ029>031-032-039>041-046>048-054>057-064-260300-
   West Central Minnesota

CITY           SKY/WX    TMP DP  RH WIND       PRES   REMARKS
FERGUS FALLS   FAIR      46  37  71 S9        29.89S
WHEATON        CLOUDY    52  36  54 S9        29.94S
MORRIS         CLOUDY    48  39  71 S8        29.93F
ALEXANDRIA     FAIR      51  31  46 S10       29.95F
ELBOW LAKE     FAIR      44  38  78 S8        29.93S
WADENA         FAIR      46  30  53 S7        29.91F
GLENWOOD       FAIR      45  34  65 S9        29.95F
APPLETON       CLOUDY    54  36  50 S6        29.95F
BENSON         CLOUDY    46  37  71 SW7       29.98S
ORTONVILLE     CLOUDY    52  34  50 S8        29.93F
WILLMAR        FAIR      46  36  66 CALM      30.00F
$$
MNZ033>034-036-042>043-049>051-058-059-260300-
   Central Minnesota

CITY           SKY/WX    TMP DP  RH WIND       PRES   REMARKS
ST CLOUD       FAIR      48  31  51 VRB7      29.97F
SAUK CENTRE    FAIR      45  36  69 S8        29.96F
PAYNESVILLE    FAIR      48  33  55 S3        29.98F
AITKIN         FAIR      45  25  45 S6        29.92F
PINE RIVER     FAIR      48  28  46 S3        29.96S
BRAINERD       FAIR      51  25  36 S7        29.94F
STAPLES        FAIR      45  28  53 S5        29.94S
LONG PRAIRIE   FAIR      45  32  61 S7        29.95F
LITTLE FALLS   FAIR      48  23  37 S3        29.96S
LITCHFIELD     FAIR      46  36  66 CALM      29.99F
BUFFALO        FAIR      49  29  47 CALM      30.00S
MAPLE LAKE     FAIR      50  34  55 CALM      30.00S
HUTCHINSON     FAIR      48  38  68 S5        30.01S
$$
MNZ037-044-045-052-053-260300-
   East Central Minnesota

CITY           SKY/WX    TMP DP  RH WIND       PRES   REMARKS
PRINCETON      FAIR      50  27  40 S3        29.98F
MORA           FAIR      46  27  46 SW5       29.99S
CAMBRIDGE      FAIR      52  30  43 S5        29.99S
RUSH CITY      MOCLDY    50  24  36 SW5       29.98S
MOOSE LAKE     FAIR      45  21  39 CALM      29.94S
HINCKLEY       FAIR      46  30  53 S5        29.96F
CLOQUET        FAIR      48  10  21 SW3       29.94F
MCGREGOR       FAIR      46  27  46 S5        29.94F
$$
MNZ071>073-080-081-089-090-097-098-260300-
   Southwest Minnesota

CITY           SKY/WX    TMP DP  RH WIND       PRES   REMARKS
MONTEVIDEO     CLOUDY    52  34  50 S5        29.97F
GRANITE FALLS  PTCLDY    49  41  71 SE8       29.99F
CANBY          CLOUDY    53  36  52 S6        29.97F
REDWOOD FALLS  CLOUDY    49  39  68 S7        29.99F
OLIVIA         PTCLDY    50  37  62 SE6       29.99F
PIPESTONE      MOCLDY   N/A N/A N/A SW3       29.99S
WINDOM         PTCLDY    48  27  43 CALM      30.01S
WORTHINGTON    CLEAR     52  32  46 S3        30.01F
JACKSON        CLEAR     50  32  50 SE3       30.02F
TRACY          PTCLDY    51  37  58 S5        29.99F
SLAYTON        CLOUDY    51  33  50 S5        30.01S
$$
MNZ065>067-074>077-082>085-091>093-260300-
   South Central Minnesota

CITY           SKY/WX    TMP DP  RH WIND       PRES   REMARKS
MANKATO        FAIR      51  33  50 SW5       30.01F
NEW ULM        CLEAR     48  32  53 S3        30.01S
ST JAMES       CLEAR     50  39  66 CALM      30.02F
FAIRMONT       CLEAR     50  39  66 SE3       30.02F
GLENCOE        FAIR      50  38  64 CALM      30.00S
OWATONNA       FAIR      46  36  66 CALM      30.02S
WASECA         FAIR      45  36  70 CALM      30.03F
ALBERT LEA     FAIR      48  32  53 CALM      30.02S
$$
MNZ078>079-086>088-094>096-260300-
   Southeast Minnesota

CITY           SKY/WX    TMP DP  RH WIND       PRES   REMARKS
ROCHESTER      FAIR      51  31  46 NW6       30.02S
RED WING       FAIR      45  25  45 CALM      30.00S
STANTON        FAIR      50  33  51 SW3       29.99F
DODGE CENTER   FAIR      48  34  57 CALM      30.02S
WINONA         FAIR      48  32  53 CALM      29.99S
AUSTIN         FAIR      52  34  50 CALM      30.01F
PRESTON        FAIR      52  26  36 CALM      30.02S
$$
ABBREVIATIONS USED IN REMARKS
   TC - TEMPERATURES IN CELSIUS
  WCI - WIND CHILL INDEX
   HX - HEAT INDEX
  VSB - VISIBILITY
$$




USA.gov is the U.S. government's official web portal to all federal, state and local government web resources and services.